SCP
0 0 0 0 0 0 -0 -0 0 0 0 0 0 0 0 0 0 0 -0 0 0 0 0 0 0 0 0 0 0 0 0 0 0 0 0 0 0 0 0 0 0 0 0 0 0 0 0 0 0
0 0 0 0 0 0 -0 0 0 -0 0 0 -0 -0 0 0 0 0 0 0 0 0 0 0 0 0 0 0 0 0 0 0 0 0 0 0 0 0 0 0 0 0 0 0 0 0 0 0 0
0 0 0 0 0 -0 0 0 0 0 0 0 0 0 0 0 0 0 0 0 0 0 0 0 0 0 0 0 0 0 0 0 0 0 0 0 0 0 0 0 0 0 0 0 0 0 0 0 0
0 0 0 0 -0 -0 0 0 0 0 0 0 -0 0 0 0 0 0 0 0 0 0 0 0 1 1 1 1 1 0 0 0 0 0 0 0 0 0 0 0 0 0 0 0 0 0 0 0 0
0 0 0 0 0 0 0 0 0 0 0 0 -0 0 0 0 0 0 0 1 1 0 0 0 1 1 1 1 1 1 0 0 0 0 0 0 0 0 0 0 0 0 0 0 0 0 0 0 0
0 0 0 0 0 0 0 -0 0 0 0 0 0 0 0 0 0 0 0 0 0 0 0 0 1 1 1 1 1 1 1 1 0 0 0 0 0 1 0 0 0 0 0 0 0 0 0 0 0
0 0 0 0 0 0 -0 -0 0 0 0 0 0 0 0 0 0 0 0 0 0 0 0 1 1 1 2 2 1 1 1 1 1 1 1 1 1 1 1 1 0 0 0 0 0 0 0 0 0
0 0 0 0 0 0 -0 0 0 0 0 0 0 0 0 0 0 0 0 0 0 0 2 1 1 1 1 2 3 2 2 1 1 1 1 1 1 1 1 1 1 0 0 0 0 0 0 0 0
0 0 0 0 0 0 0 0 0 0 0 0 0 0 0 0 0 0 0 0 0 0 3 2 1 1 1 2 3 3 2 2 1 1 1 1 1 1 1 1 0 1 0 0 0 0 0 0 0
0 0 0 0 0 0 0 0 0 0 0 0 0 0 0 0 0 0 0 0 0 0 2 3 2 2 2 2 2 3 2 2 2 1 1 1 1 0 0 0 0 1 1 1 0 0 0 0 0
0 0 0 0 0 0 0 0 0 0 -0 0 0 0 0 0 0 0 0 0 0 0 0 2 2 2 2 2 2 3 2 2 2 1 1 1 0 0 1 0 1 1 1 1 0 0 0 0 0
0 0 0 0 0 0 0 0 0 0 0 0 0 0 0 0 0 0 0 0 0 0 0 0 1 3 3 3 2 3 1 1 1 1 0 1 1 1 1 0 0 1 0 0 0 0 0 0 0
0 0 0 0 0 0 0 0 0 0 0 0 -0 0 0 0 0 0 0 0 0 0 0 0 0 2 3 2 1 2 1 1 0 1 1 1 1 0 0 0 0 0 0 0 0 0 0 0 0
0 0 0 0 0 0 0 0 0 0 0 0 0 0 0 0 0 0 0 0 0 0 0 0 0 1 1 1 1 1 1 1 0 1 1 1 1 1 1 1 1 1 1 0 0 0 0 0 0
0 0 0 0 0 0 0 0 0 0 0 0 0 0 0 0 0 0 0 0 0 0 0 0 0 1 1 1 1 1 1 1 0 1 1 1 1 1 1 1 1 1 1 0 0 0 0 0 0
0 0 0 0 0 0 0 -0 0 0 0 0 0 0 0 0 0 0 0 0 0 0 0 0 2 2 2 1 2 2 1 0 0 0 1 1 1 1 1 1 1 1 0 0 0 0 0 0 0
0 0 0 0 0 0 0 0 0 0 0 0 0 0 0 0 0 0 0 0 0 0 0 0 3 2 2 2 2 2 0 0 1 1 1 1 1 1 1 1 0 1 0 0 0 0 0 0 0
0 0 0 0 0 0 0 0 0 0 0 0 0 0 0 0 0 0 0 0 0 0 0 1 2 2 3 3 2 1 1 0 0 1 1 1 1 1 1 1 1 1 0 0 0 0 0 0 0
0 0 0 0 0 0 0 0 -0 0 0 0 0 0 0 0 0 0 0 0 0 1 2 2 2 2 3 2 2 1 1 0 0 1 0 1 1 1 1 1 1 0 0 0 0 0 0 0 0
0 0 0 0 0 0 0 0 0 0 0 0 0 0 0 0 0 0 0 0 0 1 1 1 2 2 2 1 1 1 0 0 0 0 0 0 0 1 0 0 0 0 0 0 0 0 0 0 0
0 0 0 0 0 0 0 0 0 0 0 0 0 0 0 0 0 0 0 0 0 1 1 1 1 1 1 1 1 1 0 0 0 0 0 0 0 1 0 0 0 0 0 0 0 0 0 0 0
0 0 0 0 0 0 0 0 0 0 -0 0 -0 -0 0 0 0 0 0 0 0 0 0 1 1 1 1 0 1 0 0 0 0 0 0 1 0 0 0 0 0 0 0 0 0 0 0 0 0
0 0 0 0 0 0 0 0 0 0 -0 0 0 0 0 0 0 0 0 1 0 0 1 1 1 0 1 0 0 0 0 0 0 0 0 0 0 0 0 0 0 0 0 0 0 -0 -0 -0 -0
0 0 0 0 0 0 0 0 -0 0 0 0 0 0 0 0 0 0 1 1 0 0 0 0 0 0 0 1 0 0 0 0 0 0 0 0 0 0 0 0 0 0 0 0 0 -0 -0 -0 0
0 0 0 0 0 0 0 0 0 0 0 0 0 0 0 0 0 0 0 0 0 0 0 0 0 0 0 0 0 0 0 0 0 0 0 0 0 0 0 0 0 0 0 -0 -0 0 0 0 -0
0 0 0 0 0 0 0 0 0 0 0 0 -0 0 0 0 0 -0 -0 0 0 -0 0 0 0 0 0 0 0 0 0 0 0 0 0 0 0 0 0 0 0 0 0 -0 -0 0 0 0 0
0 0 0 0 0 0 0 0 0 0 -0 0 0 0 0 0 -0 -0 -0 0 -0 0 0 0 0 0 0 0 0 0 0 0 0 0 0 0 0 0 0 0 -0 -0 0 -0 0 0 0 0 0
0 0 0 0 0 0 0 0 0 -0 -0 0 0 0 0 -0 -0 -0 0 0 0 0 0 0 0 0 0 0 0 0 0 0 0 0 0 0 0 0 0 -0 -0 -0 -0 0 0 0 0 0 0
0 0 0 0 0 0 0 0 -0 -0 0 0 0 0 -0 -0 -0 -0 0 0 0 0 -0 0 0 0 0 0 0 0 0 0 0 0 0 0 0 0 0 -0 -0 -0 -0 0 0 0 0 0 0
0 0 0 0 0 0 0 0 -0 0 0 0 0 0 -0 -0 -0 0 0 0 0 -0 -0 0 0 0 0 0 0 0 0 0 0 0 0 0 0 0 -0 0 0 0 -0 0 0 0 0 0 0
Wind_Speed_500mb
4 9 10 1 5 4 8 14 19 17 18 36 20 17 6 21 12 9 31 39 27 26 24 20 20 23 24 25 23 23 21 18 13 8 7 10 13 14 14 11 7 8 8 10 14 14 10 11 13
11 15 5 2 3 3 10 15 7 11 15 36 25 7 10 12 43 41 48 29 31 25 24 18 22 25 27 27 26 26 24 19 15 10 6 6 9 13 15 13 8 7 8 12 13 10 12 14 13
23 9 4 6 8 11 9 5 7 9 5 13 30 3 13 21 41 43 42 36 26 25 23 23 22 26 29 31 30 30 27 22 17 11 5 1 7 13 13 12 11 10 11 11 14 18 18 16 17
15 5 11 4 16 24 22 36 6 6 23 39 67 3 20 30 19 34 37 38 23 23 24 27 27 29 33 34 34 33 32 27 21 15 9 7 8 14 17 14 13 14 15 14 14 16 19 19 18
12 8 6 9 16 25 34 46 41 11 10 30 72 13 23 30 36 31 24 26 29 20 22 30 30 33 37 39 38 37 35 31 27 21 16 13 12 16 21 20 16 15 17 20 22 25 26 27 22
7 10 5 13 24 34 34 53 38 27 37 21 7 24 18 27 22 15 22 25 26 31 29 31 31 32 38 43 44 43 40 36 33 30 24 21 18 20 25 26 24 19 20 26 25 25 27 32 30
5 4 12 18 30 37 30 45 15 17 20 23 18 11 32 40 24 24 17 17 31 39 44 44 44 38 40 45 48 48 45 43 39 37 32 30 25 26 28 29 23 16 18 20 22 25 27 30 31
16 4 11 16 23 36 35 45 38 10 26 14 16 3 18 36 24 12 7 24 30 51 55 54 53 43 47 52 56 56 54 50 47 44 40 37 33 30 29 30 18 17 19 18 17 22 27 27 29
36 7 15 19 20 28 52 31 64 40 8 20 12 20 19 4 20 19 7 19 33 49 58 61 58 50 49 52 60 61 60 58 55 52 49 45 40 34 31 25 18 19 26 26 25 28 29 27 28
28 16 30 28 24 25 45 51 53 46 10 21 30 27 25 40 21 20 25 20 29 36 53 61 61 59 57 55 54 67 64 65 63 61 58 52 44 38 31 26 16 23 27 26 25 24 12 13 18
48 38 34 39 50 54 52 47 47 56 26 19 4 32 25 48 43 21 14 23 30 37 42 40 59 61 66 62 55 61 69 70 66 65 65 57 47 41 32 23 26 27 25 29 24 22 16 9 8
43 57 53 52 62 62 44 58 48 57 50 32 28 58 47 54 46 47 58 53 48 54 47 48 41 52 68 72 67 59 56 65 64 65 68 64 51 41 31 32 39 30 29 33 26 25 20 18 15
47 37 57 66 69 71 69 57 50 61 80 74 68 54 55 54 64 60 51 38 51 54 39 42 45 47 62 76 80 65 59 54 46 45 46 49 45 35 36 33 34 35 36 35 33 31 29 28 21
36 44 54 58 62 66 55 57 66 69 69 65 75 83 79 68 63 63 51 51 52 35 36 50 52 53 57 75 83 68 61 53 46 43 39 37 36 35 36 32 33 36 39 36 34 36 37 36 33
53 40 43 53 54 47 64 59 56 58 63 69 71 79 77 56 65 73 64 62 31 33 47 56 50 47 46 66 75 64 55 49 43 37 34 35 36 39 38 35 42 42 38 40 39 39 47 45 42
36 33 43 41 42 57 45 68 31 65 64 65 65 74 71 64 69 59 54 32 29 34 51 53 43 36 33 56 75 63 52 50 43 46 45 38 35 42 41 39 33 38 45 42 39 41 44 44 39
24 41 45 49 48 33 27 57 40 63 67 74 74 77 80 76 69 65 43 39 34 43 48 44 37 37 37 49 73 77 66 52 51 42 36 35 33 37 39 35 27 38 40 40 40 35 38 38 41
21 42 50 52 26 33 40 54 56 78 66 66 75 77 78 86 65 42 53 49 45 47 40 38 37 41 42 52 62 69 65 53 49 42 30 31 34 37 33 31 36 34 39 38 33 35 33 35 32
36 45 36 34 36 31 37 49 52 44 37 44 60 57 51 37 44 44 66 55 49 37 42 41 42 43 48 56 54 55 52 44 30 31 36 35 34 35 34 41 39 37 36 35 33 29 30 27 30
46 47 43 28 24 34 43 40 49 41 35 67 68 60 64 69 62 55 43 47 45 43 41 37 38 44 52 50 42 29 30 40 32 30 36 34 41 43 38 40 35 32 31 26 23 23 24 26 28
52 52 36 42 24 38 23 25 38 32 38 47 51 63 47 45 54 57 56 42 47 44 37 31 35 47 45 38 28 23 27 25 31 28 36 44 40 35 36 28 32 31 27 21 20 18 22 22 26
48 26 43 36 24 40 9 28 38 31 39 31 40 50 49 50 49 53 49 44 45 40 31 28 35 41 39 31 30 33 37 32 30 34 29 37 35 33 29 22 25 23 19 18 17 18 21 23 28
45 30 36 24 33 31 32 12 53 17 25 18 20 55 70 75 79 58 51 47 46 34 26 27 31 33 34 33 43 33 33 27 19 18 24 23 25 26 26 26 24 20 18 16 17 19 18 18 19
34 33 35 30 23 27 34 23 62 35 40 15 18 54 59 63 56 40 45 53 43 31 27 30 34 37 44 38 35 27 31 22 26 23 21 18 24 27 23 23 20 18 15 15 13 13 8 10 13
27 27 15 17 21 34 24 19 44 10 27 40 30 50 63 50 29 45 61 54 45 36 35 34 45 51 44 43 32 28 31 32 26 24 23 22 23 17 14 20 23 13 12 12 15 7 8 13 17
26 25 21 29 22 31 14 30 24 26 35 54 66 66 65 44 39 68 68 57 47 43 39 45 53 43 45 43 32 27 30 19 16 16 18 19 12 8 9 18 15 11 9 14 10 9 10 9 9
43 36 27 34 29 13 12 38 46 52 51 37 36 36 26 24 65 74 63 57 53 46 42 54 46 38 40 31 22 17 18 13 15 14 15 13 7 6 9 13 11 10 18 11 6 9 7 9 12
27 23 16 19 36 33 15 28 24 31 32 38 18 24 52 72 70 63 58 56 52 45 47 46 39 37 35 27 20 20 14 9 11 11 7 7 9 10 8 10 12 15 18 11 6 8 5 5 9
15 34 25 13 21 21 22 24 28 21 16 18 21 36 67 69 77 72 64 61 51 47 49 43 40 37 36 26 24 19 16 10 6 7 7 5 9 11 8 15 20 21 14 9 3 5 11 7 2
37 39 32 19 17 21 11 22 15 22 10 19 21 47 75 80 78 73 72 66 55 54 52 48 43 40 35 23 26 17 12 5 6 9 10 8 14 16 22 18 15 17 13 6 6 9 4 2 4
Wind_Direction_500mb
232 174 161 59 41 98 257 256 233 350 338 335 56 63 60 76 104 151 137 168 167 160 152 153 168 174 175 170 171 172 169 163 154 136 83 43 25 10 2 346 317 286 285 287 292 296 285 278 274
164 156 133 262 121 163 265 231 252 183 241 13 317 134 69 66 112 134 149 176 187 175 164 155 173 182 182 180 180 183 181 176 176 162 127 63 30 13 358 342 313 257 266 286 286 281 303 306 290
164 167 319 185 194 214 244 353 229 141 48 261 316 214 116 114 121 145 155 171 195 186 180 177 179 187 191 190 189 191 192 192 194 190 189 332 8 5 352 337 314 265 257 266 267 274 284 291 294
156 185 253 250 257 271 255 274 8 110 111 302 279 59 64 126 112 145 159 172 194 210 204 196 193 198 200 199 197 199 201 205 210 214 229 270 317 338 336 323 310 289 280 279 273 274 272 279 287
195 258 241 236 248 257 256 260 236 191 168 282 228 153 124 115 120 135 157 176 187 225 233 210 210 209 209 208 206 207 209 213 222 226 235 254 283 307 312 311 304 292 274 281 272 263 264 267 265
235 224 272 242 260 259 272 278 208 206 194 224 136 135 124 131 136 147 154 190 202 202 235 235 222 223 221 219 217 214 217 221 228 235 237 248 267 289 297 307 310 307 277 275 275 267 260 255 259
248 326 234 262 267 284 284 331 311 327 6 57 62 86 138 148 152 160 191 206 222 218 218 234 236 228 233 229 225 225 222 229 232 237 241 247 257 274 286 295 301 308 303 283 280 281 274 264 265
237 253 278 271 276 285 296 313 312 14 341 75 62 58 167 170 187 175 222 232 232 224 217 226 236 239 234 231 228 226 228 229 237 240 243 250 257 268 281 294 278 288 295 288 298 296 289 280 273
227 230 255 250 254 275 297 324 311 328 337 285 39 358 326 261 183 175 213 265 230 228 229 225 232 242 245 233 232 228 227 230 234 240 244 248 256 266 276 277 281 293 296 294 302 301 287 280 279
223 226 235 245 258 276 294 297 303 313 209 233 270 301 290 289 238 271 317 294 286 289 244 238 237 243 241 237 238 233 230 232 234 238 242 248 255 266 266 274 298 292 298 296 298 301 289 279 300
236 238 241 258 258 264 270 279 295 300 303 246 21 278 285 296 272 275 258 290 284 283 288 259 247 245 244 241 241 233 232 235 237 242 246 250 255 259 256 276 271 276 275 278 289 278 265 281 313
243 237 239 250 262 271 272 278 277 282 287 286 256 244 269 289 269 281 276 278 287 281 270 284 271 254 245 243 239 246 234 233 237 242 248 250 252 247 255 256 259 259 257 278 266 273 277 267 252
238 247 241 244 249 255 268 272 270 274 281 287 297 293 286 288 279 285 270 257 273 269 272 279 279 279 248 239 233 239 243 239 237 241 244 237 237 249 260 249 256 263 270 281 273 262 262 260 238
258 254 257 252 244 249 257 265 265 262 265 287 288 286 284 284 289 275 271 257 277 263 283 293 286 283 261 243 232 238 242 245 238 237 235 234 236 248 259 249 248 256 267 271 264 257 248 255 249
262 266 271 262 259 248 255 261 253 271 281 278 272 273 275 281 283 276 288 270 256 274 289 291 283 280 263 242 229 230 229 236 235 232 224 226 232 256 264 262 248 252 259 267 265 256 250 248 244
259 259 255 256 261 254 254 262 273 275 278 276 278 283 278 277 278 288 273 245 271 290 292 283 270 268 245 229 218 207 211 214 214 206 212 222 239 258 267 269 256 250 260 265 266 267 254 250 251
235 239 249 250 237 252 249 274 271 273 266 255 258 265 268 263 263 272 269 258 274 287 283 264 256 256 240 226 219 214 216 212 210 203 213 230 241 258 264 273 278 258 262 270 273 263 254 254 252
217 227 236 246 239 238 244 255 264 264 261 261 266 263 256 250 253 268 278 265 274 270 261 240 240 241 237 225 214 208 220 221 210 214 220 232 247 255 265 263 274 273 279 273 270 271 254 258 244
246 239 252 244 244 263 256 258 268 269 264 268 266 268 249 234 270 280 269 260 260 243 245 235 231 234 231 216 210 206 213 209 203 206 224 238 241 244 251 254 276 276 278 282 273 257 252 236 244
244 260 262 263 246 247 247 257 256 253 253 252 257 261 262 255 254 250 251 264 258 245 232 229 234 230 219 214 209 218 214 210 219 234 228 230 237 251 268 268 265 272 279 275 272 250 241 239 221
232 238 248 256 285 279 286 290 285 283 274 267 256 259 262 250 247 246 257 256 241 227 227 227 224 209 209 209 202 180 174 193 216 217 223 229 243 261 264 275 264 271 271 269 267 255 238 235 227
242 234 238 253 241 254 209 272 264 266 264 266 266 271 272 268 263 249 253 237 227 219 219 226 210 202 206 201 185 172 189 193 192 208 223 239 248 260 272 283 276 266 267 268 282 267 251 240 234
253 225 257 257 246 261 254 269 266 215 254 248 256 256 257 260 262 256 245 219 204 205 213 205 188 181 179 167 172 184 183 194 215 216 231 231 251 274 285 272 255 261 272 278 261 254 242 228 217
263 243 244 257 261 263 249 222 267 242 250 251 243 260 262 258 254 229 187 185 184 190 195 185 172 169 162 173 183 194 194 198 195 200 218 248 271 276 272 253 235 255 272 267 237 221 206 222 230
260 233 248 236 231 239 222 243 235 251 235 239 242 249 258 264 226 172 167 170 175 182 181 167 160 160 165 179 175 185 185 204 206 213 235 255 278 267 244 229 225 247 267 216 207 210 256 246 245
255 235 221 214 217 244 236 241 238 241 261 243 249 250 256 259 180 170 167 168 169 174 168 159 160 164 175 180 184 198 216 205 206 223 250 266 274 257 228 210 223 241 216 193 185 229 216 222 210
251 251 246 250 279 225 234 240 262 258 258 256 245 245 135 147 159 157 160 163 166 166 161 159 163 168 170 176 180 190 174 178 216 246 269 263 254 220 197 209 207 205 170 183 190 187 197 217 216
235 259 249 224 235 253 242 250 256 263 257 236 215 156 133 143 147 152 156 161 162 157 154 159 164 163 160 170 191 167 173 209 243 262 214 197 169 160 163 178 172 164 169 193 209 171 203 215 178
267 238 240 279 220 232 255 257 263 274 202 173 182 166 149 149 151 156 156 161 159 153 159 161 166 160 168 181 170 169 197 209 206 184 177 168 182 156 146 127 139 138 177 198 206 182 194 192 228
285 266 232 228 250 232 243 246 248 270 172 152 188 158 155 152 153 155 158 159 157 159 166 168 169 166 173 177 158 184 184 247 188 153 173 167 158 147 133 134 142 149 169 190 168 168 236 18 3
Wind_Speed_850mb
4 9 10 1 5 4 8 14 19 17 18 36 20 17 6 21 12 9 31 39 27 26 24 20 20 23 24 25 23 23 21 18 13 8 7 10 13 14 14 11 7 8 8 10 14 14 10 11 13
11 15 5 2 3 3 10 15 7 11 15 36 25 7 10 12 43 41 48 29 31 25 24 18 22 25 27 27 26 26 24 19 15 10 6 6 9 13 15 13 8 7 8 12 13 10 12 14 13
23 9 4 6 8 11 9 5 7 9 5 13 30 3 13 21 41 43 42 36 26 25 23 23 22 26 29 31 30 30 27 22 17 11 5 1 7 13 13 12 11 10 11 11 14 18 18 16 17
15 5 11 4 16 24 22 36 6 6 23 39 67 3 20 30 19 34 37 38 23 23 24 27 27 29 33 34 34 33 32 27 21 15 9 7 8 14 17 14 13 14 15 14 14 16 19 19 18
12 8 6 9 16 25 34 46 41 11 10 30 72 13 23 30 36 31 24 26 29 20 22 30 30 33 37 39 38 37 35 31 27 21 16 13 12 16 21 20 16 15 17 20 22 25 26 27 22
7 10 5 13 24 34 34 53 38 27 37 21 7 24 18 27 22 15 22 25 26 31 29 31 31 32 38 43 44 43 40 36 33 30 24 21 18 20 25 26 24 19 20 26 25 25 27 32 30
5 4 12 18 30 37 30 45 15 17 20 23 18 11 32 40 24 24 17 17 31 39 44 44 44 38 40 45 48 48 45 43 39 37 32 30 25 26 28 29 23 16 18 20 22 25 27 30 31
16 4 11 16 23 36 35 45 38 10 26 14 16 3 18 36 24 12 7 24 30 51 55 54 53 43 47 52 56 56 54 50 47 44 40 37 33 30 29 30 18 17 19 18 17 22 27 27 29
36 7 15 19 20 28 52 31 64 40 8 20 12 20 19 4 20 19 7 19 33 49 58 61 58 50 49 52 60 61 60 58 55 52 49 45 40 34 31 25 18 19 26 26 25 28 29 27 28
28 16 30 28 24 25 45 51 53 46 10 21 30 27 25 40 21 20 25 20 29 36 53 61 61 59 57 55 54 67 64 65 63 61 58 52 44 38 31 26 16 23 27 26 25 24 12 13 18
48 38 34 39 50 54 52 47 47 56 26 19 4 32 25 48 43 21 14 23 30 37 42 40 59 61 66 62 55 61 69 70 66 65 65 57 47 41 32 23 26 27 25 29 24 22 16 9 8
43 57 53 52 62 62 44 58 48 57 50 32 28 58 47 54 46 47 58 53 48 54 47 48 41 52 68 72 67 59 56 65 64 65 68 64 51 41 31 32 39 30 29 33 26 25 20 18 15
47 37 57 66 69 71 69 57 50 61 80 74 68 54 55 54 64 60 51 38 51 54 39 42 45 47 62 76 80 65 59 54 46 45 46 49 45 35 36 33 34 35 36 35 33 31 29 28 21
36 44 54 58 62 66 55 57 66 69 69 65 75 83 79 68 63 63 51 51 52 35 36 50 52 53 57 75 83 68 61 53 46 43 39 37 36 35 36 32 33 36 39 36 34 36 37 36 33
53 40 43 53 54 47 64 59 56 58 63 69 71 79 77 56 65 73 64 62 31 33 47 56 50 47 46 66 75 64 55 49 43 37 34 35 36 39 38 35 42 42 38 40 39 39 47 45 42
36 33 43 41 42 57 45 68 31 65 64 65 65 74 71 64 69 59 54 32 29 34 51 53 43 36 33 56 75 63 52 50 43 46 45 38 35 42 41 39 33 38 45 42 39 41 44 44 39
24 41 45 49 48 33 27 57 40 63 67 74 74 77 80 76 69 65 43 39 34 43 48 44 37 37 37 49 73 77 66 52 51 42 36 35 33 37 39 35 27 38 40 40 40 35 38 38 41
21 42 50 52 26 33 40 54 56 78 66 66 75 77 78 86 65 42 53 49 45 47 40 38 37 41 42 52 62 69 65 53 49 42 30 31 34 37 33 31 36 34 39 38 33 35 33 35 32
36 45 36 34 36 31 37 49 52 44 37 44 60 57 51 37 44 44 66 55 49 37 42 41 42 43 48 56 54 55 52 44 30 31 36 35 34 35 34 41 39 37 36 35 33 29 30 27 30
46 47 43 28 24 34 43 40 49 41 35 67 68 60 64 69 62 55 43 47 45 43 41 37 38 44 52 50 42 29 30 40 32 30 36 34 41 43 38 40 35 32 31 26 23 23 24 26 28
52 52 36 42 24 38 23 25 38 32 38 47 51 63 47 45 54 57 56 42 47 44 37 31 35 47 45 38 28 23 27 25 31 28 36 44 40 35 36 28 32 31 27 21 20 18 22 22 26
48 26 43 36 24 40 9 28 38 31 39 31 40 50 49 50 49 53 49 44 45 40 31 28 35 41 39 31 30 33 37 32 30 34 29 37 35 33 29 22 25 23 19 18 17 18 21 23 28
45 30 36 24 33 31 32 12 53 17 25 18 20 55 70 75 79 58 51 47 46 34 26 27 31 33 34 33 43 33 33 27 19 18 24 23 25 26 26 26 24 20 18 16 17 19 18 18 19
34 33 35 30 23 27 34 23 62 35 40 15 18 54 59 63 56 40 45 53 43 31 27 30 34 37 44 38 35 27 31 22 26 23 21 18 24 27 23 23 20 18 15 15 13 13 8 10 13
27 27 15 17 21 34 24 19 44 10 27 40 30 50 63 50 29 45 61 54 45 36 35 34 45 51 44 43 32 28 31 32 26 24 23 22 23 17 14 20 23 13 12 12 15 7 8 13 17
26 25 21 29 22 31 14 30 24 26 35 54 66 66 65 44 39 68 68 57 47 43 39 45 53 43 45 43 32 27 30 19 16 16 18 19 12 8 9 18 15 11 9 14 10 9 10 9 9
43 36 27 34 29 13 12 38 46 52 51 37 36 36 26 24 65 74 63 57 53 46 42 54 46 38 40 31 22 17 18 13 15 14 15 13 7 6 9 13 11 10 18 11 6 9 7 9 12
27 23 16 19 36 33 15 28 24 31 32 38 18 24 52 72 70 63 58 56 52 45 47 46 39 37 35 27 20 20 14 9 11 11 7 7 9 10 8 10 12 15 18 11 6 8 5 5 9
15 34 25 13 21 21 22 24 28 21 16 18 21 36 67 69 77 72 64 61 51 47 49 43 40 37 36 26 24 19 16 10 6 7 7 5 9 11 8 15 20 21 14 9 3 5 11 7 2
37 39 32 19 17 21 11 22 15 22 10 19 21 47 75 80 78 73 72 66 55 54 52 48 43 40 35 23 26 17 12 5 6 9 10 8 14 16 22 18 15 17 13 6 6 9 4 2 4
Wind_Direction_850mb
232 174 161 59 41 98 257 256 233 350 338 335 56 63 60 76 104 151 137 168 167 160 152 153 168 174 175 170 171 172 169 163 154 136 83 43 25 10 2 346 317 286 285 287 292 296 285 278 274
164 156 133 262 121 163 265 231 252 183 241 13 317 134 69 66 112 134 149 176 187 175 164 155 173 182 182 180 180 183 181 176 176 162 127 63 30 13 358 342 313 257 266 286 286 281 303 306 290
164 167 319 185 194 214 244 353 229 141 48 261 316 214 116 114 121 145 155 171 195 186 180 177 179 187 191 190 189 191 192 192 194 190 189 332 8 5 352 337 314 265 257 266 267 274 284 291 294
156 185 253 250 257 271 255 274 8 110 111 302 279 59 64 126 112 145 159 172 194 210 204 196 193 198 200 199 197 199 201 205 210 214 229 270 317 338 336 323 310 289 280 279 273 274 272 279 287
195 258 241 236 248 257 256 260 236 191 168 282 228 153 124 115 120 135 157 176 187 225 233 210 210 209 209 208 206 207 209 213 222 226 235 254 283 307 312 311 304 292 274 281 272 263 264 267 265
235 224 272 242 260 259 272 278 208 206 194 224 136 135 124 131 136 147 154 190 202 202 235 235 222 223 221 219 217 214 217 221 228 235 237 248 267 289 297 307 310 307 277 275 275 267 260 255 259
248 326 234 262 267 284 284 331 311 327 6 57 62 86 138 148 152 160 191 206 222 218 218 234 236 228 233 229 225 225 222 229 232 237 241 247 257 274 286 295 301 308 303 283 280 281 274 264 265
237 253 278 271 276 285 296 313 312 14 341 75 62 58 167 170 187 175 222 232 232 224 217 226 236 239 234 231 228 226 228 229 237 240 243 250 257 268 281 294 278 288 295 288 298 296 289 280 273
227 230 255 250 254 275 297 324 311 328 337 285 39 358 326 261 183 175 213 265 230 228 229 225 232 242 245 233 232 228 227 230 234 240 244 248 256 266 276 277 281 293 296 294 302 301 287 280 279
223 226 235 245 258 276 294 297 303 313 209 233 270 301 290 289 238 271 317 294 286 289 244 238 237 243 241 237 238 233 230 232 234 238 242 248 255 266 266 274 298 292 298 296 298 301 289 279 300
236 238 241 258 258 264 270 279 295 300 303 246 21 278 285 296 272 275 258 290 284 283 288 259 247 245 244 241 241 233 232 235 237 242 246 250 255 259 256 276 271 276 275 278 289 278 265 281 313
243 237 239 250 262 271 272 278 277 282 287 286 256 244 269 289 269 281 276 278 287 281 270 284 271 254 245 243 239 246 234 233 237 242 248 250 252 247 255 256 259 259 257 278 266 273 277 267 252
238 247 241 244 249 255 268 272 270 274 281 287 297 293 286 288 279 285 270 257 273 269 272 279 279 279 248 239 233 239 243 239 237 241 244 237 237 249 260 249 256 263 270 281 273 262 262 260 238
258 254 257 252 244 249 257 265 265 262 265 287 288 286 284 284 289 275 271 257 277 263 283 293 286 283 261 243 232 238 242 245 238 237 235 234 236 248 259 249 248 256 267 271 264 257 248 255 249
262 266 271 262 259 248 255 261 253 271 281 278 272 273 275 281 283 276 288 270 256 274 289 291 283 280 263 242 229 230 229 236 235 232 224 226 232 256 264 262 248 252 259 267 265 256 250 248 244
259 259 255 256 261 254 254 262 273 275 278 276 278 283 278 277 278 288 273 245 271 290 292 283 270 268 245 229 218 207 211 214 214 206 212 222 239 258 267 269 256 250 260 265 266 267 254 250 251
235 239 249 250 237 252 249 274 271 273 266 255 258 265 268 263 263 272 269 258 274 287 283 264 256 256 240 226 219 214 216 212 210 203 213 230 241 258 264 273 278 258 262 270 273 263 254 254 252
217 227 236 246 239 238 244 255 264 264 261 261 266 263 256 250 253 268 278 265 274 270 261 240 240 241 237 225 214 208 220 221 210 214 220 232 247 255 265 263 274 273 279 273 270 271 254 258 244
246 239 252 244 244 263 256 258 268 269 264 268 266 268 249 234 270 280 269 260 260 243 245 235 231 234 231 216 210 206 213 209 203 206 224 238 241 244 251 254 276 276 278 282 273 257 252 236 244
244 260 262 263 246 247 247 257 256 253 253 252 257 261 262 255 254 250 251 264 258 245 232 229 234 230 219 214 209 218 214 210 219 234 228 230 237 251 268 268 265 272 279 275 272 250 241 239 221
232 238 248 256 285 279 286 290 285 283 274 267 256 259 262 250 247 246 257 256 241 227 227 227 224 209 209 209 202 180 174 193 216 217 223 229 243 261 264 275 264 271 271 269 267 255 238 235 227
242 234 238 253 241 254 209 272 264 266 264 266 266 271 272 268 263 249 253 237 227 219 219 226 210 202 206 201 185 172 189 193 192 208 223 239 248 260 272 283 276 266 267 268 282 267 251 240 234
253 225 257 257 246 261 254 269 266 215 254 248 256 256 257 260 262 256 245 219 204 205 213 205 188 181 179 167 172 184 183 194 215 216 231 231 251 274 285 272 255 261 272 278 261 254 242 228 217
263 243 244 257 261 263 249 222 267 242 250 251 243 260 262 258 254 229 187 185 184 190 195 185 172 169 162 173 183 194 194 198 195 200 218 248 271 276 272 253 235 255 272 267 237 221 206 222 230
260 233 248 236 231 239 222 243 235 251 235 239 242 249 258 264 226 172 167 170 175 182 181 167 160 160 165 179 175 185 185 204 206 213 235 255 278 267 244 229 225 247 267 216 207 210 256 246 245
255 235 221 214 217 244 236 241 238 241 261 243 249 250 256 259 180 170 167 168 169 174 168 159 160 164 175 180 184 198 216 205 206 223 250 266 274 257 228 210 223 241 216 193 185 229 216 222 210
251 251 246 250 279 225 234 240 262 258 258 256 245 245 135 147 159 157 160 163 166 166 161 159 163 168 170 176 180 190 174 178 216 246 269 263 254 220 197 209 207 205 170 183 190 187 197 217 216
235 259 249 224 235 253 242 250 256 263 257 236 215 156 133 143 147 152 156 161 162 157 154 159 164 163 160 170 191 167 173 209 243 262 214 197 169 160 163 178 172 164 169 193 209 171 203 215 178
267 238 240 279 220 232 255 257 263 274 202 173 182 166 149 149 151 156 156 161 159 153 159 161 166 160 168 181 170 169 197 209 206 184 177 168 182 156 146 127 139 138 177 198 206 182 194 192 228
285 266 232 228 250 232 243 246 248 270 172 152 188 158 155 152 153 155 158 159 157 159 166 168 169 166 173 177 158 184 184 247 188 153 173 167 158 147 133 134 142 149 169 190 168 168 236 18 3